Station WGXA2 - Wrangell Harbor Image indicating link to RSS feed of recent meteorological observations for station WGXA2


Conditions at WGXA2 as of
(10:33 pm AKDT on 06/16/2024)
0633 GMT on 06/17/2024:
     

Click on the graph icon in the table below to see a time series plot of the last five days of that observation.

5-day plot - Wind Direction Wind Direction (WDIR): SE ( 140 deg true )
5-day plot - Wind Speed Wind Speed (WSPD): 1 kts
5-day plot - Wind Gust Wind Gust (GST): 2 kts
5-day plot - Atmospheric Pressure Atmospheric Pressure (PRES):29.98 in
5-day plot - Air Temperature Air Temperature (ATMP): 56.7 °F
5-day plot - Dew Point Dew Point (DEWP): 51.6 °F
5-day plot - Wind Speed at 10 Meters Wind Speed at 10 meters (WSPD10M): 2 kts
5-day plot - Wind Speed at 20 Meters Wind Speed at 20 meters (WSPD20M): 2 kts
5-day plot -  Wind Speed, Wind Gust and Atmospheric Pressure Combined plot of Wind Speed, Gust, and Air Pressure
Previous observations
TIME
(AKDT)
5-day plot - Wind Direction
WDIR
 
5-day plot - Wind Speed
WSPD
kts
5-day plot - Wind Gust
GST
kts
5-day plot - Wave Height
WVHT
ft
5-day plot - Dominant Wave Period
DPD
sec
5-day plot - Average Wave Period
APD
sec
5-day plot - Mean Wave Direction
MWD
 
5-day plot - Atmospheric Pressure
PRES
in
5-day plot - Pressure Tendency
PTDY
in
5-day plot - Air Temperature
ATMP
°F
5-day plot - Water Temperature
WTMP
°F
5-day plot - Dew Point
DEWP
°F
5-day plot - Salinity
SAL
psu
5-day plot - Visibility
VIS
nmi
5-day plot - Tide (above MLLW)
TIDE
ft
2024-06-16 10:23 pmENE 3 5----29.98- 56.7- 50.9---
2024-06-16 10:13 pm E 3 5----29.98- 57.2- 51.3---
2024-06-16 10:04 pm E 3 5----29.98- 57.7- 51.4---
2024-06-16 09:53 pmENE 3 5----29.98- 58.3- 51.6---
2024-06-16 09:43 pm NE 3 5----29.98- 58.5- 51.6---
2024-06-16 09:33 pmNNE 2 5----29.97- 58.8- 52.0---
2024-06-16 09:23 pm N 2 5----29.97- 58.8- 52.3---
2024-06-16 09:13 pm NW 3 6----29.97- 59.4- 52.2---
2024-06-16 09:03 pmWNW 2 5----29.97- 60.1- 52.2---
2024-06-16 08:53 pm NE 1 3----29.97- 60.3- 52.2---
2024-06-16 08:44 pm N 3 5----29.97- 59.5- 52.3---
2024-06-16 08:33 pmNNW 3 6----29.97- 59.2- 52.3---
2024-06-16 08:24 pmWNW 5 7----29.97- 59.0- 52.0---
2024-06-16 08:13 pm W 6 8----29.97- 59.4- 51.8---
2024-06-16 08:03 pmWNW 6 9----29.97- 59.2- 52.2---
2024-06-16 07:53 pm NW 4 7----29.97- 59.9- 52.0---
2024-06-16 07:43 pmWNW 3 4----29.97- 60.4- 52.2---
2024-06-16 07:33 pm NW 3 5----29.97- 60.6- 52.2---
2024-06-16 07:23 pm NW 4 7----29.97- 59.5- 52.2---
2024-06-16 07:13 pmWNW 4 6----29.97- 58.8- 52.3---
2024-06-16 07:03 pm NW 5 7----29.97- 58.6- 52.9---
2024-06-16 06:43 pmNNE 2 3----29.98- 59.2- 52.3---
2024-06-16 06:33 pm W 3 7----29.98- 57.6- 52.2---
2024-06-16 06:23 pm W 4 7----29.98- 57.9- 52.3---
2024-06-16 06:13 pm NW 3 6----29.98- 58.6- 52.3---
2024-06-16 06:03 pmNNW 3 7----29.98- 58.1- 52.5---
2024-06-16 05:53 pm NW 4 7----29.98- 57.7- 52.3---
2024-06-16 05:44 pm NW 3 7----29.99- 58.1- 52.2---
2024-06-16 05:33 pmWNW 5 8----29.99- 58.1- 51.4---
2024-06-16 05:23 pmWNW 5 10----29.99- 58.8- 51.1---
2024-06-16 05:14 pm NW 1 3----30.00- 60.3- 51.3---
2024-06-16 05:03 pm NW 1 3----30.00- 60.3- 51.3---
2024-06-16 04:53 pmWSW 2 4----30.00- 59.9- 50.9---
2024-06-16 04:43 pm SW 2 4----30.00- 60.1- 51.1---
2024-06-16 04:33 pm W 3 6----30.00- 58.5- 50.2---
2024-06-16 04:23 pm W 5 8----30.00- 58.3- 50.0---
2024-06-16 04:13 pm W 4 9----30.01- 58.5- 50.0---
2024-06-16 03:53 pm W 5 8----30.01- 56.7- 50.2---
2024-06-16 03:43 pm W 4 7----30.01- 56.8- 50.4---
2024-06-16 03:33 pm W 5 7----30.01- 56.7- 50.7---
2024-06-16 03:23 pm W 3 7----30.02- 57.7- 51.1---
2024-06-16 03:13 pm W 3 6----30.02- 57.6- 50.9---
2024-06-16 03:03 pm W 3 6----30.02- 57.6- 51.3---
2024-06-16 02:53 pmWSW 3 7----30.02- 57.9- 50.5---
2024-06-16 02:43 pm W 4 8----30.03- 57.9- 49.8---
2024-06-16 02:34 pm W 4 7----30.03- 57.4- 49.6---
2024-06-16 02:24 pm W 4 7----30.03- 57.2- 49.3---
2024-06-16 02:13 pm W 4 6----30.04- 56.8- 49.1---
2024-06-16 02:03 pm W 4 5----30.04- 56.7- 49.5---
2024-06-16 01:53 pm W 4 5----30.04- 56.7- 49.5---
2024-06-16 01:43 pm W 3 5----30.04- 56.7- 49.6---
2024-06-16 01:33 pm W 3 5----30.05- 56.1- 49.6---
2024-06-16 01:24 pm W 3 5----30.05- 55.8- 49.5---
2024-06-16 01:13 pm W 2 4----30.05- 55.6- 49.6---
2024-06-16 01:03 pm W 3 5----30.05- 54.9- 49.5---
2024-06-16 12:53 pmWNW 5 7----30.05- 54.5- 49.1---
2024-06-16 12:43 pm W 4 6----30.05- 54.7- 48.9---
2024-06-16 12:33 pm W 5 6----30.05- 54.3- 49.3---
2024-06-16 12:23 pmWNW 4 5----30.05- 54.5- 49.8---
2024-06-16 12:13 pmWNW 2 4----30.05- 55.6- 48.9---
2024-06-16 12:04 pm W 2 3----30.05- 54.5- 49.3---
2024-06-16 11:53 amWNW 3 4----30.06- 54.0- 49.5---
2024-06-16 11:43 amWNW 3 4----30.06- 54.0- 49.1---
2024-06-16 11:33 am NW 3 5----30.06- 54.5- 48.6---
2024-06-16 11:23 amNNW 3 4----30.06- 54.1- 48.7---
2024-06-16 11:13 amWNW 3 5----30.06- 53.6- 49.3---
2024-06-16 11:03 amWNW 5 7----30.06- 53.4- 49.3---
2024-06-16 10:54 am W 5 7----30.06- 53.8- 49.5---
2024-06-16 10:43 am W 3 5----30.05- 54.1- 49.3---
2024-06-16 10:23 am SW 3 5----30.05- 54.0- 48.7---
2024-06-16 10:13 am W 2 4----30.06- 53.4- 48.6---
2024-06-16 10:03 amWNW 4 5----30.06- 53.2- 48.6---
2024-06-16 09:53 am NW 3 6----30.06- 53.4- 48.2---
2024-06-16 09:43 am NW 4 7----30.06- 53.4- 48.6---
2024-06-16 09:33 am NW 5 8----30.06- 53.4- 48.7---
2024-06-16 09:23 am NW 6 8----30.06- 52.9- 48.7---
2024-06-16 09:13 am NW 5 9----30.06- 53.1- 48.9---
2024-06-16 09:03 am W 5 7----30.06- 53.6- 49.1---
2024-06-16 08:53 amSSW 5 9----30.06- 53.6- 48.7---
2024-06-16 08:44 amSSW 5 8----30.06- 53.4- 48.7---
2024-06-16 08:34 amSSW 6 11----30.06- 53.4- 48.6---
2024-06-16 08:23 amSSW 6 9----30.05- 53.8- 48.7---
2024-06-16 08:13 amSSW 6 8----30.06- 54.0- 48.7---
2024-06-16 08:03 amSSW 5 8----30.05- 53.8- 48.7---
2024-06-16 07:53 amSSW 6 8----30.05- 53.6- 48.7---
2024-06-16 07:43 am S 5 7----30.05- 53.4- 48.7---
2024-06-16 07:33 am S 5 8----30.06- 53.4- 48.7---
2024-06-16 07:23 am S 5 8----30.05- 53.1- 48.6---
2024-06-16 07:13 am S 5 9----30.05- 52.9- 48.6---
2024-06-16 07:03 am S 4 7----30.05- 52.7- 48.6---
2024-06-16 06:53 am S 5 9----30.05- 52.9- 48.4---
2024-06-16 06:43 am S 4 7----30.05- 53.4- 48.7---
2024-06-16 06:33 amESE 3 6----30.05- 54.0- 49.3---
2024-06-16 06:23 am E 3 6----30.05- 53.6- 49.3---
2024-06-16 06:13 am SE 3 4----30.04- 52.5- 48.9---
2024-06-16 06:03 amSSE 3 4----30.04- 52.2- 48.6---
2024-06-16 05:53 am SE 2 3----30.04- 53.1- 48.7---
2024-06-16 05:43 am- 0 3----30.04- 52.7- 48.7---
2024-06-16 05:33 amESE 1 2----30.04- 52.0- 48.4---
2024-06-16 05:23 amESE 2 3----30.04- 51.8- 48.2---
2024-06-16 05:14 amESE 2 2----30.04- 51.4- 48.0---
2024-06-16 05:03 am E 2 2----30.04- 51.1- 48.0---
2024-06-16 04:53 amESE 2 3----30.04- 51.1- 47.8---
2024-06-16 04:43 am E 2 3----30.04- 51.3- 47.8---
2024-06-16 04:33 am E 1 2----30.04- 51.8- 47.7---
2024-06-16 04:23 am SE 1 3----30.04- 52.0- 47.8---
2024-06-16 04:13 am SE 2 3----30.03- 52.0- 47.7---
2024-06-16 04:03 am SE 2 3----30.03- 51.6- 47.8---
2024-06-16 03:53 am E 2 3----30.03- 52.2- 47.8---
2024-06-16 03:43 amENE 2 4----30.03- 52.3- 48.0---
2024-06-16 03:23 am SE 1 2----30.04- 52.2- 47.8---
2024-06-16 03:13 amESE 2 3----30.03- 52.7- 48.2---
2024-06-16 03:03 am SE 1 3----30.03- 53.1- 48.0---
2024-06-16 02:53 am N 1 2----30.03- 53.2- 48.2---
2024-06-16 02:43 amENE 2 3----30.03- 53.1- 48.0---
2024-06-16 02:34 am E 2 3----30.03- 53.1- 47.8---
2024-06-16 02:23 am E 3 4----30.03- 53.2- 47.8---
2024-06-16 02:13 am SE 2 5----30.03- 53.8- 48.0---
2024-06-16 01:53 am S 2 5----30.03- 54.7- 48.2---
2024-06-16 01:43 am S 2 5----30.02- 54.5- 48.4---
2024-06-16 01:33 am E 2 3----30.02- 54.3- 48.9---
2024-06-16 01:23 am NE 2 3----30.02- 54.7- 49.1---
2024-06-16 01:13 amESE 2 3----30.01- 54.7- 49.1---
2024-06-16 01:03 amENE 2 3----30.01- 55.9- 49.1---
2024-06-16 12:53 amWNW 2 4----30.01- 56.1- 48.6---
2024-06-16 12:43 am E 2 3----30.00- 55.2- 48.6---
2024-06-16 12:33 amESE 1 3----30.00- 55.4- 49.1---
2024-06-16 12:24 am E 4 5----30.00- 55.8- 49.3---
2024-06-16 12:03 amESE 3 4----30.00- 56.3- 50.0---
2024-06-15 11:53 pmENE 3 4----30.00- 56.7- 49.6---
2024-06-15 11:43 pmENE 2 5----29.99- 56.7- 49.6---
2024-06-15 11:33 pmENE 3 5----29.99- 56.7- 49.3---
2024-06-15 11:23 pm E 2 3----29.99- 57.0- 49.3---
2024-06-15 11:13 pmESE 3 4----29.99- 56.8- 49.3---
2024-06-15 11:03 pmENE 3 5----29.98- 57.7- 49.8---
2024-06-15 10:53 pm E 3 5----29.98- 57.4- 49.8---
2024-06-15 10:43 pm E 2 3----29.98- 57.7- 49.8---
2024-06-15 10:33 pmENE 2 4----29.98- 57.7- 49.6---
2024-06-15 10:23 pm E 3 5----29.97- 57.9- 50.0---
2024-06-15 10:13 pm NE 2 4----29.97- 58.5- 49.8---
2024-06-15 10:03 pm E 2 4----29.97- 58.5- 50.0---
2024-06-15 09:53 pmENE 3 5----29.96- 59.0- 50.4---